AT&T T-16

Last updated on Sun Apr 12 2026 00:02:55 GMT+0000 (Coordinated Universal Time)

1 44333U 19034A 26101.07290853 -.00000114 00000+0 00000+0 0 9993 2 44333 0.0307 87.5469 0000489 93.6945 303.4465 1.00271212 24967
UTC large
Height (km)
Speed (km/s)
/
Latitude / Longitude
Inclination (degrees)
Orbital Period (minutes)
Azimuth
Elevation
Range (km)
Doppler Factor

Next 0 passes for location: London (51.5072 / 0.1276)

Sorry there are no passes over London.
AT&T T-16